STARLINK-32771 (62573 NORAD) Tracking and Keplerian Element Data

This shows tracking and keplerian element data for the satellite.

Feedback or suggestion? Click here.




ElementValue
Catalog62573
NameSTARLINK-32771
Epoch Orbit494
Epoch Day35.16668981
Epoch Year2025
RAAN27.578
Inclination43.0005
Eccentricity0.0001009
Argument of Perigee277.3466
Mean Anonmoly78.0513
Mean Motion15.50714213
Decay Rate-0.00207573
L11 62573U 25006V 25035.16668981 -.00207573 00000+0 -36096-2 0 9997
L22 62573 43.0005 27.5780 0001009 277.3466 78.0513 15.50714213 4941



Live tracking and technical data element details for STARLINK-32771 (NORAD 62573). STARLINK-32771 can be tracked NOW for your location showing map with azimuth and elevation plus other details from your city location.







IsCatalogInMostPopularTable: catalog: 62573, numindb: 12
Update: records affected: 1



GetName: 62573 STARLINK-32771

Hit Count: updated at: Mon, 19 May 2025 02:05:39 GMT